Showing default

HXMT, 42758

Orbit data source: Space-Track

HXMT, 42758 is a payload satellite owned by CNSA (CN) in LEO that was launched on Thu, 15 Jun 2017 UTC via a CHANG ZHENG 4B launch vehicle from the Jiuquan Satellite Launch Center, China (JSC). Payload-class satellites include a variety of spacecraft equipped with specific instruments for various scientific and technological missions. These include communications satellites like Starlink; space stations such as the ISS; scientific satellites like the Hubble; Earth observation satellites from companies like Planet Labs, Umbra, and HawkEye 360; GPS; miniature CubeSats for education and research; and military/defense satellites.

Loading next visibility...
Identifier
42758, 2017-034A
Orbit
LEO
Country
Flag of CNCN / PRC
Related business
Manufacturer
CAST
Mission
Operational Civil Astronomy
Bus & Motor
ZY, Unknown motor
Mass
3,000 kg wet, ~2,900 kg dry
Launch date (UTC)
2017-06-15 (8 years ago)
Launch vehicle
CHANG ZHENG 4B
Launch site
Jiuquan Satellite Launch Center, China (JSC)
Object type
Payload
Rocket body
Debris
Shape & HBR
Box + 2 Pan, 5.0 m
Radar Cross Section
10.304 m², Large (>1 m²)

Expand to show TLE details & history
Last TLE update: 7 hours ago

TLE from 7 hours ago
0 HXMT
1 42758U 17034A   25261.04678456  .00004096  00000-0  22600-3 0  9999
2 42758  43.0135 254.6469 0034580 226.6577 133.1387 15.14780837456336
Epoch: 2025-09-18T01:07Z
TLE epoch observation values (Epoch: 2025-09-18T01:07:22.186Z)
Latitude
0.00003°
Longitude
-119.4095°
Altitude
537.778 km
Speed
7.586 km/s
True Right ascension
16h 58m 35s
True Declination
0° 00' 00"
Sunlit
Object was in daylight at epoch
Visualization orbit readout
Latitude
Unknown
Longitude
Unknown
Altitude
Unknown
Speed
Unknown
Apparent Right ascension
Unknown
Apparent Declination
Unknown
Sunlit
N/A
Visualization observer readout
Local Sidereal Time
01:00:30
Azimuth
Unknown
Elevation
Unknown
Doppler factor
Unknown
Orbital elements
Apogee altitude
547.442 km
Perigee altitude
499.71 km
Semi-major axis
6,901.713 km
Eccentricity
0.00346
Inclination
43.0135°
RAAN
254.6469°
Arg. of periapsis
226.6577°
True anomaly
133.427°
Mean anomaly
133.1387°
Eccentric anomaly
133.28293°
Mean motion
3.78537 °/min
Orbital period
95.1 mins
BSTAR
0.000226
Loading maneuver chart data...
Computing Atmospheric mass density...
Loading historical data...
Loading historical data...
Loading historical data...
Loading historical data...
Loading historical data...
Loading historical data...
Loading historical data...

Documentation

Showing up to 5 results
|